Flag for U.S.A. Weather past 2 weeks in Raleigh, North Carolina, U.S.A.

Now
49 °F

Mostly cloudy.


Feels Like: 46 °F
Forecast: 45 / 60 °F
Wind: 7 mph from Southwest

Location: Raleigh-Durham International Airport

Current Time: Dec 28, 2014 at 2:21:23 AM

Latest Report: Dec 28, 2014 at 1:51 AM


Visibility: 10 mi

Pressure: 30.15 "Hg

Humidity: 66%

Dew point: 38 °F

Location of RaleighLocation

Historic Weather in Raleigh — Graph

°F

Raleigh temperature yesterday

Maximum temperature yesterday: 62 °F (at 2:51 PM)
Minimum temperature yesterday: 32 °F (at 5:51 AM)
Average temperature yesterday: 47 °F

Past Weeks' High & Low Weather Summary

 TemperatureHumidityPressure
High66 °F (Dec 24, 4:51 PM)96% (Dec 24, 10:51 AM)30.37 "Hg (Dec 24, 10:51 AM)
Low29 °F (Dec 13, 6:51 AM)25% (Dec 13, 2:51 PM)29.66 "Hg (Dec 24, 6:51 PM)
Average44 °F71%30.11 "Hg
* Reported Dec 13 12:51 AM — Dec 28 12:51 AM, Raleigh, Weather by CustomWeather, © 2014

Note: Actual official high and low records may vary slightly from our data, if they occured in-between our weather recording intervals... More about our weather records

Advertising

Raleigh weather history for previous 24 hours

 ConditionsComfort  
Time TempWeatherWind HumidityBarometerVisibility
12:51 AM
Dec 28
50 °FOvercast.5 mph63%30.16 "Hg10 mi
11:51 PM
Dec 27
51 °FPassing clouds.No wind61%30.18 "Hg10 mi
10:51 PM51 °FPassing clouds.5 mph61%30.20 "Hg10 mi
9:51 PM50 °FPassing clouds.No wind61%30.22 "Hg10 mi
8:51 PM54 °FMostly cloudy.5 mph55%30.22 "Hg10 mi
7:51 PM54 °FPassing clouds.5 mph55%30.23 "Hg10 mi
6:51 PM53 °FPassing clouds.3 mph56%30.24 "Hg10 mi
5:51 PM55 °FPassing clouds.5 mph53%30.24 "Hg10 mi
4:51 PM55 °FScattered clouds.5 mph51%30.23 "Hg10 mi
3:51 PM61 °FScattered clouds.8 mph41%30.23 "Hg10 mi
2:51 PM62 °FPassing clouds.6 mph38%30.24 "Hg10 mi
1:51 PM61 °FPassing clouds.9 mph42%30.24 "Hg10 mi
12:51 PM59 °FPassing clouds.7 mph44%30.25 "Hg10 mi
11:51 AM57 °FPassing clouds.8 mph51%30.30 "Hg10 mi
10:51 AM53 °FPassing clouds.6 mph59%30.33 "Hg10 mi
9:51 AM46 °FPassing clouds.7 mph71%30.35 "Hg10 mi
8:51 AM40 °FPassing clouds.No wind83%30.32 "Hg10 mi
7:51 AM32 °FPassing clouds.No wind92%30.32 "Hg10 mi
6:51 AM32 °FIce fog.No wind92%30.32 "Hg6 mi
5:51 AM32 °FIce fog.No wind92%30.29 "Hg6 mi
4:51 AM33 °FFog.No wind88%30.29 "Hg6 mi
3:51 AM33 °FPassing clouds.No wind88%30.28 "Hg9 mi
2:51 AM35 °FPassing clouds.No wind88%30.29 "Hg9 mi
Weather by CustomWeather, © 2014

See weather overviewHow to use our weather pages